Overview Statistics Trail Chart Weather Telemetry Raw packets
 

This is the latest recevied weather packets stored in our database for station/object W6MAF. If no packets are shown the sender has not sent any weather packets the latest 10 day(s).

<< 91 92 93 94 95 96 97 >>
Time Temp. Humidity Pressure Rain* Wind** Luminosity Snow
1788003678 22.22° C 36% - 0 mm 4.02 m/s, 214° - -
1788003381 22.22° C 36% - 0 mm 4.47 m/s, 217° - -
1788003083 22.22° C 36% - 0 mm 3.13 m/s, 215° - -
1788002785 22.22° C 36% - 0 mm 4.92 m/s, 224° - -
1788002488 22.22° C 36% - 0 mm 4.92 m/s, 211° - -
1788002187 22.78° C 36% - 0 mm 4.92 m/s, 224° - -
1788001889 22.78° C 37% - 0 mm 4.92 m/s, 226° - -
1788001293 22.78° C 37% - 0 mm 4.92 m/s, 235° - -
1788000996 22.78° C 37% - 0 mm 4.47 m/s, 218° - -
1788000398 22.78° C 37% - 0 mm 4.47 m/s, 224° - -
1788000099 22.78° C 38% - 0 mm 5.36 m/s, 219° - -
1787999801 22.22° C 38% - 0 mm 5.36 m/s, 229° - -
1787999504 22.22° C 38% - 0 mm 4.47 m/s, 226° - -
1787999206 22.22° C 38% - 0 mm 4.92 m/s, 211° - -
1787998908 22.22° C 38% - 0 mm 4.92 m/s, 231° - -
1787998744 22.22° C 37% - 0 mm 2.68 m/s, 193° - -
1787998743 21.67° C 36% - 0 mm 3.13 m/s, 226° - -
1787998608 22.22° C 38% - 0 mm 3.58 m/s, 232° - -
1787998342 22.22° C 38% - 0 mm 4.02 m/s, 217° - -
1787998310 22.22° C 38% - 0 mm 4.02 m/s, 217° - -
1787998053 22.22° C 38% - 0 mm 5.36 m/s, 214° - -
1787998012 22.22° C 38% - 0 mm 5.36 m/s, 214° - -
1787997714 22.22° C 37% - 0 mm 4.47 m/s, 214° - -
1787997416 22.22° C 38% - 0 mm 4.92 m/s, 210° - -
1787997119 22.22° C 38% - 0 mm 4.47 m/s, 210° - -

* Rain latest hour (hover to see other rain measurements)
** Current wind speed in m/s (hover to see current wind gust speed)